RH
15 18 18 14 14 12 12 11 10 9 9 9 9 9 9 9 10 10 10 10 10 10 10 10 11 13 29 62 71 76 82 78 82 85 85 84 80 66 56 44 30 21 19
20 24 27 19 15 14 12 12 12 12 11 11 12 11 12 12 12 12 12 12 12 13 13 13 12 11 12 19 54 68 74 75 78 86 87 86 86 88 78 70 60 44 31
28 33 36 25 18 16 16 14 14 14 14 13 13 13 12 12 14 16 16 16 17 18 18 19 18 15 13 12 15 29 63 78 81 84 90 90 89 89 88 86 82 78 67
33 38 33 31 24 19 19 17 15 15 15 15 14 16 19 19 19 19 15 12 12 13 19 23 23 23 24 20 14 12 15 57 76 86 86 88 91 92 96 99 97 90 88
57 56 50 45 39 24 21 19 19 16 17 17 20 21 20 19 15 10 15 19 21 23 23 24 25 26 27 27 27 22 15 14 44 75 87 90 96 99 97 99 96 92 100
50 37 25 24 29 34 30 23 26 21 20 24 21 20 18 16 10 13 11 11 13 18 22 25 26 28 28 29 30 30 30 23 14 26 73 87 90 88 95 83 86 90 98
36 27 20 17 20 27 32 31 28 28 24 22 19 19 17 14 10 13 12 10 10 12 17 20 21 22 24 26 29 31 32 32 31 26 16 22 63 90 92 94 98 82 92
19 16 17 16 13 14 20 23 24 20 18 16 18 18 19 13 12 10 10 10 10 10 11 14 17 19 19 17 15 18 23 27 31 32 31 28 21 27 65 83 84 92 85
12 8 10 13 13 9 9 10 11 12 14 16 20 18 16 12 11 11 10 10 9 9 10 9 9 13 17 20 21 20 14 13 16 21 29 31 30 30 24 20 32 49 74
12 8 7 7 10 10 7 7 9 10 10 15 18 17 12 11 12 12 11 10 9 8 8 7 8 9 10 13 17 19 23 26 24 24 34 39 38 33 32 33 30 20 18
7 7 6 5 6 7 8 7 7 8 8 10 13 12 11 12 12 12 12 11 9 9 8 9 8 8 8 9 13 17 19 22 24 27 29 34 48 48 40 35 36 38 38
9 8 5 5 5 5 6 7 7 7 7 8 9 10 11 11 12 12 11 12 11 12 11 10 9 9 8 8 10 13 17 18 18 19 20 24 31 36 44 48 47 46 45
14 12 9 6 5 5 6 6 6 7 7 8 9 10 11 12 12 13 12 11 11 11 10 11 10 10 9 9 9 9 14 18 17 17 17 16 16 16 19 29 38 43 45
19 13 12 10 7 6 6 6 7 7 7 7 7 8 10 11 12 12 12 12 11 10 10 10 12 11 10 10 10 10 10 16 18 18 18 18 18 17 17 16 16 17 18
52 25 14 12 11 10 8 6 7 7 8 8 8 8 8 9 10 11 11 11 10 10 9 9 10 12 13 12 12 10 10 11 14 21 20 20 20 15 13 13 14 15 16
64 58 44 33 23 16 13 11 10 10 9 8 8 8 9 10 10 10 10 10 10 10 9 9 10 10 11 12 13 13 12 12 13 14 23 24 21 21 16 12 12 14 18
66 67 65 62 59 56 52 42 29 18 12 11 11 10 10 9 9 10 11 11 12 11 10 10 10 9 9 10 13 13 13 13 14 14 14 23 26 23 22 18 14 18 21
67 67 65 66 70 70 68 67 64 56 46 36 22 14 12 12 13 12 12 11 11 11 11 11 11 11 11 10 10 11 12 13 13 14 14 16 24 29 26 24 21 20 21
61 64 67 70 65 60 59 57 59 68 72 64 44 32 24 18 15 14 13 13 13 13 12 12 12 12 12 11 10 9 9 10 11 12 13 14 16 28 32 28 26 24 23
61 61 61 61 61 60 60 60 60 61 61 65 70 64 48 33 25 22 20 20 19 18 18 16 15 14 12 12 10 9 9 9 10 10 10 11 12 16 31 34 31 29 28
65 64 63 62 60 58 57 57 58 57 55 54 53 49 44 41 38 34 28 25 23 21 19 18 17 21 32 35 34 29 21 14 13 12 11 11 11 15 27 42 40 34 33
59 55 51 49 47 48 47 45 45 48 48 47 48 50 50 50 46 39 36 32 26 23 24 34 37 40 55 55 55 54 53 50 45 44 37 32 19 12 22 44 45 40 39
54 48 42 34 28 26 24 21 20 22 23 23 22 20 25 38 46 48 43 37 32 34 40 41 49 57 52 50 48 47 46 42 38 38 35 35 42 41 23 21 40 43 42
56 51 49 44 37 35 35 35 33 31 28 23 22 20 15 11 20 38 48 51 49 46 52 64 68 62 50 43 39 34 27 23 19 19 17 13 17 26 40 42 29 20 24
61 57 58 54 51 40 33 25 16 12 12 5 5 5 6 6 7 8 10 22 50 64 72 76 73 67 55 48 44 34 28 25 21 18 17 15 16 15 17 28 38 41 33
72 68 65 64 44 27 17 11 12 15 20 22 24 26 26 23 21 19 17 15 11 11 36 70 74 72 64 57 54 49 47 40 32 28 27 28 24 19 19 19 28 37 40
Wind_Speed
37 36 39 38 34 31 30 29 27 27 27 27 27 27 28 28 29 30 30 31 32 33 33 33 34 32 31 29 30 30 29 28 29 28 28 26 24 22 21 20 19 19 18
37 35 34 36 35 30 28 27 26 25 25 25 25 26 26 27 28 30 30 31 32 34 35 35 36 37 35 34 34 33 33 32 31 31 31 29 28 27 25 24 23 22 21
32 34 30 30 31 29 26 25 25 24 24 24 25 25 25 24 24 25 26 27 29 31 33 34 35 37 38 39 39 38 37 35 35 34 33 33 32 31 30 29 27 26 26
29 27 26 24 25 25 24 22 22 22 23 23 23 22 21 20 22 23 24 26 29 31 33 35 36 37 37 39 41 42 42 41 40 38 37 37 35 35 33 31 32 32 31
25 22 20 20 19 20 22 21 22 21 22 22 19 19 20 19 19 22 23 25 28 30 32 33 35 36 36 37 38 41 43 44 43 41 42 39 37 31 36 36 36 36 30
24 22 21 19 16 18 19 20 21 20 20 19 18 18 18 19 20 19 19 21 23 24 26 27 29 31 33 35 37 38 40 43 45 48 47 43 44 41 41 28 36 42 39
24 23 22 18 14 16 16 16 19 20 19 18 17 17 18 19 20 20 21 20 20 19 18 19 22 26 28 31 34 37 40 41 41 44 48 51 51 48 44 44 39 33 40
23 22 21 19 15 14 14 15 16 19 18 17 17 18 19 19 19 20 20 20 19 18 16 15 16 17 18 21 25 31 36 39 41 43 44 46 50 52 53 52 49 46 43
21 22 21 20 17 15 14 14 15 16 17 17 18 19 20 20 19 19 20 19 18 17 16 15 16 16 16 17 19 21 25 29 33 37 40 43 46 47 49 52 53 53 49
21 20 21 21 21 19 17 15 15 16 17 19 19 20 21 21 19 20 20 19 20 19 18 18 17 18 18 18 20 21 21 22 25 29 32 35 39 43 45 46 48 50 53
20 21 21 19 19 19 19 19 18 17 17 19 20 21 20 20 21 21 19 19 21 22 21 21 21 20 20 21 22 23 23 23 22 23 26 29 31 34 38 41 43 44 46
19 19 19 19 19 19 19 19 19 20 19 19 20 21 22 22 23 23 23 20 20 22 25 26 26 26 24 23 23 24 24 24 23 21 22 24 26 29 32 34 37 39 40
21 19 18 17 17 18 19 19 20 21 22 22 23 23 24 25 25 26 27 28 25 23 23 26 29 30 29 27 26 26 25 24 24 23 21 22 24 25 27 29 31 33 36
19 18 18 17 17 17 18 19 20 21 22 24 25 25 25 26 28 29 30 31 31 29 25 24 24 27 29 29 29 28 27 26 25 25 24 23 23 24 25 26 28 29 30
20 19 18 18 17 17 17 18 19 20 21 22 24 24 25 26 28 30 31 32 32 34 31 26 25 24 25 26 27 29 28 28 28 26 26 27 25 26 27 27 27 27 28
20 20 20 20 20 20 19 19 20 21 22 23 24 24 25 25 26 28 30 31 32 33 33 31 31 30 27 25 26 27 28 28 29 29 28 27 28 27 27 27 26 26 26
20 20 19 19 20 21 22 22 22 23 23 23 25 25 26 26 26 27 29 30 31 33 31 25 29 31 31 31 28 27 29 29 28 30 30 29 29 29 29 30 30 30 29
18 18 18 18 18 19 19 20 21 23 24 25 26 26 26 27 26 27 28 28 30 32 32 26 27 28 29 31 31 30 27 28 29 29 30 30 31 32 31 31 32 31 32
18 19 19 21 22 21 21 21 22 22 23 24 25 25 26 26 27 28 28 28 29 31 32 29 25 27 27 28 29 29 29 28 27 28 28 30 32 33 34 34 34 33 33
18 19 20 20 21 21 22 22 22 22 22 23 23 24 25 25 25 27 27 28 29 30 31 30 27 26 26 26 27 28 28 29 28 28 29 30 32 33 35 36 37 35 35
22 22 22 22 23 23 23 22 22 21 20 19 20 21 22 23 24 26 26 28 29 29 29 29 26 24 25 25 26 26 26 27 25 26 27 28 30 32 34 37 39 37 36
23 23 23 23 23 23 24 23 23 21 21 20 20 21 22 22 24 25 25 26 26 27 26 28 28 28 28 28 27 26 26 26 25 28 30 24 28 27 31 36 39 39 39
25 25 24 24 24 24 25 25 24 23 22 23 24 24 24 25 26 25 26 25 26 27 28 31 31 30 28 27 26 25 24 23 21 20 25 20 25 26 27 30 37 40 41
27 27 27 27 27 28 29 29 30 30 28 27 29 30 30 29 29 30 29 27 28 30 33 36 34 30 28 27 26 24 23 24 23 23 26 22 24 25 26 30 32 35 39
30 30 31 32 32 33 34 33 31 29 28 26 24 24 26 28 29 32 35 35 34 33 36 38 36 33 32 29 29 28 26 27 26 25 27 28 25 26 27 31 34 36 36
33 34 33 35 36 34 33 33 32 32 31 34 37 36 32 32 32 34 35 35 36 36 39 41 39 37 36 35 34 33 31 31 30 28 29 32 31 33 32 34 35 36 35
Wind_Direction
293 289 281 271 266 262 263 262 259 259 261 261 260 260 262 263 263 263 265 265 266 266 265 263 261 258 255 256 258 256 256 257 257 255 257 258 259 260 262 264 264 261 258
298 292 285 278 266 260 256 259 258 255 257 259 260 261 262 263 265 267 267 267 266 266 265 264 263 263 259 250 251 255 256 255 255 255 254 254 254 256 257 258 260 262 262
304 289 286 277 266 258 253 252 255 256 256 258 260 262 264 265 267 267 269 270 270 270 269 267 264 262 261 259 254 250 251 251 252 253 253 254 255 256 255 255 256 259 263
311 296 284 273 264 256 254 252 254 259 261 260 260 262 263 265 267 271 275 277 275 273 271 269 266 264 261 258 257 256 252 249 251 251 251 252 254 255 254 255 257 256 256
315 303 292 279 267 260 255 251 252 253 259 261 257 258 262 263 271 277 281 281 279 276 273 271 268 265 263 262 260 259 257 253 249 252 252 253 253 259 258 254 257 254 258
316 310 302 291 279 267 259 256 257 254 254 257 257 261 261 272 275 278 287 290 290 284 276 272 270 269 266 263 262 261 259 258 255 252 253 253 252 255 250 256 258 253 259
322 318 309 300 292 281 272 266 266 262 255 251 254 258 265 275 276 276 286 289 292 295 287 278 272 270 269 267 264 262 261 260 258 257 255 254 254 257 255 256 258 255 263
321 318 314 304 295 289 282 273 266 266 263 258 252 252 269 273 279 278 282 283 288 290 289 290 289 285 282 278 272 267 264 262 260 258 257 257 255 254 256 257 257 255 258
322 324 316 303 297 290 283 276 269 263 263 262 258 260 268 272 276 278 279 282 283 287 288 294 294 292 290 288 284 278 272 268 265 262 260 258 257 257 257 256 256 258 257
314 316 316 311 305 299 290 276 264 263 260 259 261 265 269 273 275 277 277 279 282 285 287 289 289 291 292 291 290 289 287 281 274 270 266 263 260 259 258 259 259 258 258
319 317 312 306 300 300 299 293 284 277 273 267 267 269 272 275 276 274 272 275 281 284 287 288 290 290 291 291 290 290 291 290 285 277 272 269 264 261 259 259 260 261 260
321 322 320 311 302 296 294 290 286 286 283 277 274 272 272 273 274 275 274 269 267 276 287 290 288 288 288 288 288 287 286 288 288 283 277 273 270 268 265 261 259 259 259
317 319 319 315 308 305 301 295 289 283 282 281 280 280 278 276 275 274 274 275 273 270 269 276 283 286 289 290 291 289 289 288 287 283 279 277 275 270 269 268 265 262 261
311 312 311 308 306 300 297 297 295 292 289 286 284 283 281 281 281 281 280 280 280 280 278 278 277 279 283 285 287 286 287 288 284 285 282 279 277 275 272 270 270 269 267
309 310 310 309 304 298 294 290 288 286 286 285 284 284 284 283 282 282 282 283 283 283 281 283 282 280 280 279 279 285 287 286 287 283 282 280 277 275 274 270 266 265 267
308 310 311 311 310 309 307 302 296 291 288 286 284 282 281 278 278 279 281 282 283 282 283 288 287 286 284 283 284 286 286 286 287 285 282 282 281 281 278 270 265 264 266
308 308 309 309 309 309 307 303 300 297 295 292 289 287 284 282 281 279 278 278 280 280 281 279 281 283 284 287 287 286 286 286 285 284 284 282 279 277 277 274 268 266 266
302 302 303 303 304 304 302 300 299 298 298 295 292 289 286 285 282 279 278 278 280 282 284 282 280 279 281 281 282 284 282 281 282 281 280 279 277 275 273 274 274 271 270
308 306 304 303 302 301 299 299 297 295 291 289 288 288 287 285 283 282 281 280 279 280 283 284 281 280 279 279 279 281 282 282 281 280 279 278 277 274 270 269 269 270 270
313 310 307 306 304 302 300 300 301 300 299 297 293 290 289 289 288 286 285 283 281 282 283 285 284 281 281 278 281 280 281 281 282 282 280 277 276 275 272 270 268 267 269
308 306 305 304 302 301 299 299 299 298 298 299 300 299 297 296 294 291 289 287 286 284 283 284 286 284 282 280 278 278 280 281 283 282 282 282 281 277 273 268 268 268 268
306 305 304 304 303 301 299 299 297 296 296 296 295 297 297 297 294 292 290 288 286 285 283 284 286 286 284 283 282 281 279 278 279 280 280 284 284 284 278 273 270 270 269
303 303 302 301 300 297 297 298 299 300 298 297 295 293 292 293 292 290 289 289 287 282 284 287 290 290 285 281 280 277 279 280 281 280 282 283 283 282 279 278 274 272 271
297 297 297 296 296 295 295 295 295 295 293 293 292 290 288 285 284 283 281 280 279 279 284 287 288 282 279 277 276 276 278 282 286 288 285 283 279 282 283 279 276 274 272
291 292 294 294 293 292 291 289 286 285 293 299 302 304 302 296 291 291 288 285 280 280 284 285 284 280 279 274 276 275 276 278 280 284 287 288 283 282 282 281 280 278 276
293 293 293 294 290 285 284 285 285 288 292 297 302 300 300 300 296 297 296 294 291 284 276 276 276 275 273 274 273 274 276 279 280 281 283 285 287 286 280 277 281 279 277